Location: Zagreb
(45.8000°N, 16.0000°E)
Time: 20:09:18
(UTC+02:00)

A-11 Canister half - Pass Details

Date: 16 August 2022
Orbit: 1524 x 1684 km, 47.3° (Epoch: 05 October)

Event Time Altitude Azimuth Distance (km) Brightness Sun altitude
Rises 02:44:28 0° 179° (S) 4,852 - -25.9°
Reaches altitude 10° 02:48:59 10° 162° (SSE) 3,895 - -25.6°
Exits shadow 02:50:34 13° 154° (SSE) 3,647 10.6 -25.4°
Maximum altitude 02:54:56 18° 125° (SE) 3,342 10.7 -25.0°
Drops below altitude 10° 03:00:55 10° 87° (E) 3,946 11.6 -24.5°
Sets 03:05:29 0° 70° (ENE) 4,943 12.5 -24.1°
